Hourly Data Report for April 13, 2020

CLYDE RIVER A
NUNAVUT
Current Station Operator: NAVCAN

70°29'09.000" N
68°31'01.000" W
26.50 m
2400804
71090
YCY

Download Data

Hourly Data (April 2020)
Hourly Data Report for April 13, 2020
TIME
LST
Temp Definition
°C
Dew Point Definition
°C
Rel Hum Definition
%
Precip. Amount Definition
mm

Wind Dir Definition
10's deg

Wind Spd Definition
km/h
Visibility Definition
km
Stn Press Definition
kPa
Hmdx Definition


Wind Chill Definition


Weather Definition


00:00 -11.2 -12.3 92 0.0 32 39 2.8 98.89   -22 Snow
01:00 -11.2 -12.3 92 0.0 32 45 1.2 98.86   -23 Snow,Blowing Snow
02:00 -11.2 -12.3 92 0.0 33 50 1.2 98.81   -23 Snow,Blowing Snow
03:00 -11.1 -12.0 93 0.0 32 45 1.0 98.82   -23 Snow,Blowing Snow
04:00 -11.0 -12.1 92 0.0 32 45 1.2 98.81   -23 Snow,Blowing Snow
05:00 -11.0 -12.1 92 0.0 32 48 1.2 98.82   -23 Snow,Blowing Snow
06:00 -11.0 -12.1 92 0.0 33 48 1.0 98.80   -23 Snow,Blowing Snow
07:00 -10.5 -11.8 90 0.0 32 41 2.0 98.88   -22 Snow,Blowing Snow
08:00 -10.7 -12.2 89 0.0 32 37 3.6 98.94   -21 Snow
09:00 -10.5 -12.2 88 0.0 31 37 4.0 98.98   -21 Snow
10:00 -9.7 -11.6 86 0.0 31 32 9.7 99.00   -19 Snow
11:00 -9.5 -11.0 89 0.0 31 34 2.0 99.02   -19 Snow
12:00 -9.6 -11.7 85 0.0 32 37 4.8 99.04   -20 Snow
13:00 -9.0 -11.0 85 0.0 31 34 4.8 99.10   -19 Snow
14:00 -9.3 -11.4 85 0.0 32 26 11.3 99.17   -18 Snow
15:00 -9.2 -10.8 88 0.0 32 26 8.1 99.20   -18 Snow
16:00 -9.4 -11.0 88 0.0 31 24 12.9 99.28   -18 Snow
17:00 -9.6 -11.4 87 0.0 30 18 16.1 99.33   -17 Snow
18:00 -9.7 -11.6 86 0.0 30 21 16.1 99.39   -18 Snow
19:00 -10.4 -12.3 86 0.0 29 22 16.1 99.48   -19 Snow
20:00 -11.9 -13.9 85 0.0 29 22 16.1 99.54   -21 LegendNANA
21:00 -12.1 -14.0 86 0.0 29 21 16.1 99.59   -21 LegendNANA
22:00 -11.8 -13.6 87 0.0 29 17 16.1 99.64   -19 Snow
23:00 -11.7 -13.6 86 0.0 29 18 16.1 99.68   -20 Snow

Notes on Data Quality.

Legend

  • E = Estimated
  • M = Missing
  • NA = Not Available*
  • [empty] = Indicates an unobserved value
Date modified: